Theta_e
309 305 303 308 311 315 317 314 313 317 321 319 320 318 319 328 331 327 326 326 327 329 332 333 335 337 340 341 340 342 340 345 351 348 347 348 348 348 352 356 353 354 354 357
303 303 310 314 315 313 317 314 314 319 321 317 318 317 325 329 329 330 328 328 329 330 332 333 334 335 339 339 339 340 344 350 352 350 349 349 349 351 355 355 353 359 358 355
300 305 314 312 310 311 308 313 313 313 316 318 315 315 319 326 326 328 331 332 331 332 332 334 335 335 337 339 340 340 347 351 350 351 350 353 356 355 354 354 352 355 356 355
303 309 310 309 308 309 301 314 318 317 310 304 314 301 313 315 317 325 327 331 332 333 335 336 337 337 338 339 342 342 351 349 348 352 349 349 345 345 343 342 345 346 357 356
302 305 305 305 307 310 306 313 315 316 310 309 310 303 308 315 318 322 323 331 332 334 335 336 337 338 341 343 342 344 351 350 348 348 353 350 349 343 337 336 335 343 355 357
305 309 305 304 309 308 311 310 308 307 304 297 303 305 306 310 314 320 322 328 333 334 335 337 339 339 341 346 346 347 346 352 351 351 354 354 350 342 343 343 343 346 352 355
302 303 306 308 301 307 307 301 294 294 295 295 301 303 305 311 317 322 322 326 329 334 334 335 336 337 339 345 347 351 349 350 352 353 353 355 355 351 346 344 332 337 351 353
295 293 302 307 302 300 301 299 294 291 293 297 304 300 306 315 317 320 322 322 325 333 334 335 335 338 339 342 347 351 352 353 353 355 355 356 356 356 347 341 338 345 351 350
295 297 305 307 308 305 301 298 303 295 296 296 302 306 311 313 319 322 323 325 322 328 334 335 336 339 340 342 345 352 352 354 357 358 359 359 358 358 357 353 351 352 350 353
301 296 304 306 307 306 302 305 297 296 291 290 297 301 303 312 316 319 323 324 327 326 333 335 336 339 340 342 345 353 354 356 357 357 359 360 361 360 357 357 350 350 350 354
309 299 300 304 300 300 299 297 300 298 296 293 295 301 313 314 317 315 317 325 329 325 328 335 335 337 340 341 343 353 354 356 356 358 358 359 361 362 360 359 352 351 354 355
303 297 294 300 306 307 302 301 300 296 296 296 299 301 316 317 319 319 321 322 322 322 325 331 334 336 338 339 341 352 354 356 357 357 358 359 360 361 360 359 357 355 358 356
305 297 293 297 298 300 298 302 300 299 299 298 298 301 315 317 319 323 321 323 320 324 328 333 335 335 338 344 342 345 353 355 357 357 358 357 359 359 359 358 359 359 358 356
311 299 298 296 301 301 298 303 304 301 296 300 300 306 309 313 317 323 325 328 329 339 345 340 339 338 341 345 346 351 346 349 353 355 355 355 358 358 359 359 359 358 361 357
304 300 307 304 307 309 307 305 306 300 301 302 308 309 311 315 322 325 330 334 341 342 342 345 347 349 345 342 344 349 352 356 355 351 351 354 359 359 360 358 358 358 360 358
304 303 304 303 309 310 308 306 306 305 310 315 313 311 318 317 318 327 333 335 333 333 334 335 335 349 347 348 347 349 352 357 356 356 358 358 358 359 358 359 357 360 359 357
302 304 303 299 307 308 300 306 309 307 315 316 309 314 320 319 320 324 323 332 333 334 335 334 333 339 346 349 349 351 353 358 354 355 355 359 359 359 358 360 357 359 357 357
302 301 304 304 302 296 307 316 317 316 318 317 317 320 320 319 321 325 328 328 332 333 334 335 332 334 341 351 350 353 354 355 356 357 355 357 358 357 359 358 358 357 356 355
306 303 300 303 300 307 311 313 313 312 312 321 320 317 320 323 323 320 326 333 332 332 332 332 333 341 345 354 356 354 354 355 357 357 357 349 348 356 356 355 354 352 352 353
307 306 306 304 300 300 309 317 322 317 309 321 319 316 316 319 314 320 329 332 333 333 331 327 332 342 342 343 352 353 355 354 353 355 358 352 346 346 354 355 356 354 354 351
306 308 304 307 305 307 315 320 322 308 312 324 321 320 319 318 322 328 332 332 332 330 329 331 334 335 335 343 344 345 350 351 356 358 357 356 350 344 350 357 356 355 353 351
308 307 306 310 306 302 322 320 316 322 324 329 327 322 321 328 329 330 331 330 330 329 329 330 334 337 344 348 347 346 350 353 354 355 354 356 356 346 343 348 355 351 351 349
307 310 309 311 311 317 322 320 324 326 326 327 327 328 326 326 328 329 329 327 327 328 329 334 332 338 340 343 344 341 348 349 349 349 353 351 356 356 350 347 352 350 350 344
313 320 314 313 317 316 321 325 327 326 324 325 325 327 325 325 329 327 326 327 326 327 332 335 334 334 334 337 339 342 345 350 351 349 350 350 352 351 354 353 353 350 344 342
318 319 314 316 321 321 327 327 327 327 328 328 329 328 327 324 325 325 327 328 329 333 333 331 330 330 332 336 338 339 337 346 350 348 346 346 343 348 347 342 340 350 349 341
317 316 315 313 319 321 321 325 327 326 326 327 325 325 327 329 327 329 329 331 333 332 332 331 331 336 331 333 335 339 343 346 348 345 345 343 345 344 343 343 331 312 317 316
Wind_Speed
9 4 5 12 13 15 21 12 10 3 10 12 19 9 5 8 6 12 15 12 11 9 9 11 10 13 12 16 11 9 9 10 7 5 4 1 3 3 3 8 9 6 6 3
6 10 10 13 17 17 13 15 9 6 8 20 11 5 16 19 24 22 18 16 14 10 12 12 11 13 15 15 12 9 9 13 8 6 4 3 2 3 4 5 5 7 6 4
9 9 16 17 15 14 8 16 7 12 19 12 4 3 17 21 10 5 12 20 18 18 16 17 15 17 15 16 15 11 9 14 9 8 4 1 1 1 4 2 3 1 6 5
9 15 15 15 11 8 7 6 22 10 7 4 7 4 6 9 7 7 15 20 20 19 16 18 17 17 17 17 16 14 11 11 8 8 6 5 5 3 3 4 3 3 4 5
12 10 10 10 8 9 10 10 16 7 9 2 14 4 7 10 4 20 18 23 22 22 21 22 21 18 21 18 16 15 13 13 8 7 6 5 4 4 3 2 4 6 3 3
9 9 5 5 10 7 6 8 4 4 6 1 3 6 5 10 17 25 16 16 23 21 21 20 21 19 17 20 18 16 16 15 13 10 8 7 8 7 4 1 3 3 3 3
9 10 10 6 2 7 1 4 4 5 3 6 6 9 6 16 8 17 15 13 16 22 22 18 19 19 15 22 20 17 17 14 14 13 9 8 7 10 11 8 4 4 3 2
8 6 10 4 5 6 7 8 7 8 5 1 5 7 8 19 4 9 8 8 8 17 16 17 15 18 15 19 20 19 17 15 14 13 12 8 8 5 7 7 5 4 4 5
5 9 5 7 6 8 11 5 12 2 5 4 3 1 7 7 8 10 12 14 18 16 15 15 10 17 13 15 17 19 18 16 15 14 12 11 8 8 8 8 8 6 6 5
10 7 7 11 7 8 8 7 3 3 1 1 4 2 5 9 5 9 15 15 12 14 11 13 11 16 15 15 15 17 19 18 17 15 12 10 11 9 7 6 9 8 7 7
4 2 9 8 6 8 3 5 5 4 6 6 5 6 5 14 10 13 11 9 10 18 8 13 11 12 15 14 14 16 17 17 15 13 13 12 10 11 9 6 10 9 7 9
7 3 2 11 11 10 6 10 7 7 7 4 7 5 6 11 12 15 16 15 14 27 16 9 9 6 8 13 15 16 17 17 16 15 13 13 12 10 10 7 10 9 8 10
4 4 4 7 7 3 4 8 7 5 3 1 7 4 4 11 14 13 23 19 20 11 12 7 9 8 8 6 8 12 15 16 15 14 13 13 11 10 10 9 11 12 11 11
5 2 7 6 7 6 4 9 8 4 3 3 5 12 20 19 19 21 10 20 21 9 14 10 9 7 8 7 8 6 6 9 13 12 13 13 14 13 12 13 11 12 10 11
4 2 1 2 5 5 5 6 10 5 3 5 14 16 10 20 26 22 11 8 11 10 10 8 6 6 5 5 6 7 6 5 7 9 10 14 15 15 13 13 8 8 10 9
2 3 2 6 12 16 16 9 10 6 16 16 22 11 4 22 25 32 15 8 9 8 8 7 6 5 5 5 5 5 5 3 4 5 9 11 14 13 11 8 11 11 13 13
4 5 4 4 9 14 5 5 7 4 9 15 7 9 12 14 25 18 11 4 8 7 7 4 4 6 7 7 7 5 4 3 3 3 2 4 8 10 11 10 12 12 13 11
5 3 6 6 4 2 4 14 17 19 12 20 20 17 15 17 19 12 5 9 8 7 5 1 2 4 7 6 6 5 5 4 3 3 2 2 3 6 7 9 8 8 9 11
9 4 1 6 4 4 10 9 14 4 3 14 18 16 17 10 7 7 13 8 9 7 4 3 5 5 7 8 6 6 5 5 4 5 4 6 6 4 5 6 6 5 7 8
2 4 7 3 7 4 14 26 16 4 3 12 12 14 14 8 4 6 8 10 9 7 5 4 4 6 7 4 6 5 4 5 5 6 6 7 7 6 6 8 9 6 8 10
3 3 2 3 8 4 3 10 12 9 4 5 21 17 13 5 5 5 8 6 8 6 7 6 6 5 3 3 4 3 6 5 2 5 6 6 8 8 8 9 9 8 9 9
4 5 5 5 6 2 5 8 9 3 4 9 10 16 14 10 12 10 8 8 8 7 7 7 6 5 5 7 6 4 3 1 3 3 1 5 7 7 7 7 7 6 10 11
5 2 3 4 5 5 5 5 4 4 4 6 7 5 6 8 8 9 8 9 7 8 6 5 7 6 4 4 3 2 4 3 2 2 4 3 4 7 9 10 9 7 10 9
7 18 5 4 5 8 3 5 6 8 8 7 6 6 6 8 8 7 7 7 7 7 8 7 7 5 3 3 4 3 5 7 6 5 4 4 5 4 5 5 5 6 7 7
4 4 4 7 6 2 8 9 8 9 7 8 10 8 6 5 6 5 4 7 7 8 6 6 5 2 2 2 4 6 7 6 6 4 4 2 2 1 4 2 1 8 10 13
4 4 5 3 5 7 6 9 9 9 8 9 11 12 12 10 8 8 6 5 6 7 6 5 4 5 3 5 7 7 8 6 6 4 3 3 1 3 3 4 2 8 5 7
Wind_Direction
251 215 194 248 257 264 159 177 167 244 246 263 197 255 274 352 272 222 178 171 178 178 167 162 162 152 141 153 150 161 137 162 139 150 148 196 247 278 94 146 147 260 253 113
258 228 234 247 259 268 163 143 209 200 329 326 165 159 181 188 233 191 176 173 173 180 160 167 165 153 150 158 161 154 143 157 147 153 167 179 176 248 143 139 183 171 158 167
204 235 222 236 255 268 259 165 153 198 191 249 343 179 173 215 244 107 212 175 178 183 171 171 177 162 153 158 165 165 157 163 158 162 155 194 125 27 88 50 356 262 157 161
215 234 244 235 239 246 282 271 176 190 97 239 122 305 209 194 246 58 250 185 187 181 176 173 175 165 165 169 168 169 156 161 166 159 166 171 169 134 208 199 216 21 210 164
245 239 244 253 246 208 241 285 176 146 131 143 291 126 237 123 117 195 233 183 187 182 181 175 179 172 171 168 172 174 164 163 165 170 163 181 173 128 205 78 16 3 235 148
243 278 279 233 277 288 288 331 328 327 162 78 294 105 323 183 191 216 219 187 184 181 182 180 179 179 165 170 172 172 173 171 166 176 173 188 164 150 122 160 186 225 230 110
296 259 277 198 235 314 328 353 336 331 344 220 80 58 150 271 188 190 203 204 172 179 178 179 176 179 173 171 173 170 174 176 172 171 174 186 208 150 157 192 182 185 176 158
212 269 239 206 186 218 226 184 169 221 225 269 4 165 229 231 183 129 53 143 110 178 168 171 171 173 178 168 168 170 172 174 173 171 179 179 195 165 177 188 186 186 187 173
228 251 223 178 157 179 265 232 226 261 294 41 162 205 339 3 56 71 65 53 20 339 151 159 144 165 167 167 166 165 173 177 174 178 170 180 182 191 180 187 192 186 188 176
259 308 256 191 144 218 175 244 330 334 280 299 324 32 204 117 81 79 80 58 349 346 142 159 161 165 171 168 170 164 171 174 178 178 178 172 182 188 191 174 175 178 195 160
226 164 290 100 164 199 272 291 273 159 142 142 148 272 204 145 169 119 96 82 28 305 308 168 175 161 174 169 161 163 169 171 174 176 178 176 178 186 197 177 180 182 169 161
211 206 335 202 207 184 201 213 215 124 277 184 139 264 149 120 134 122 122 116 175 236 252 287 168 160 145 172 172 166 172 174 180 180 173 181 179 179 190 183 186 180 166 169
175 282 331 316 47 226 192 263 230 226 106 164 120 244 99 56 140 156 153 161 201 254 265 100 73 71 67 121 158 167 175 179 180 178 174 169 176 176 186 187 182 183 164 162
97 272 154 177 232 236 230 256 257 215 90 256 184 78 8 10 28 345 95 152 181 78 58 59 58 58 62 65 85 93 171 174 179 175 178 173 175 179 186 188 181 178 167 161
114 66 90 275 287 255 288 228 270 274 250 111 95 86 42 32 21 342 296 90 86 77 73 69 80 86 67 65 98 91 71 128 166 170 175 182 184 184 182 183 165 161 160 163
191 215 111 11 46 321 269 215 244 250 100 86 89 78 166 82 46 306 305 75 77 77 69 57 45 92 94 64 114 102 104 95 96 146 180 180 183 181 178 159 169 166 169 164
195 139 101 243 265 264 18 318 337 256 55 133 111 172 176 134 170 247 285 79 100 94 90 52 26 106 91 91 115 127 136 123 143 158 162 147 162 165 170 165 173 177 175 165
188 183 153 200 67 33 303 10 61 73 91 102 118 156 185 173 207 173 241 264 117 116 119 202 327 112 113 115 114 119 133 134 155 163 199 142 165 176 173 183 181 170 165 164
175 188 39 115 89 319 3 342 345 66 145 146 142 162 178 179 48 324 252 194 130 132 122 17 50 105 71 95 115 119 146 164 164 195 173 109 103 121 175 181 179 169 163 169
282 187 123 152 95 83 266 302 330 349 71 169 150 164 150 127 132 253 174 121 127 119 108 47 47 95 85 109 105 101 184 164 204 224 206 180 174 181 200 191 198 187 175 183
346 16 74 28 73 42 263 287 298 56 270 71 152 154 152 172 199 231 121 118 127 137 122 82 80 104 79 147 117 81 72 90 258 224 231 200 193 203 210 207 205 179 167 177
7 357 31 40 102 178 309 9 57 266 24 73 122 172 194 175 150 157 141 131 133 138 129 128 97 83 63 80 88 104 101 136 28 11 57 246 204 193 200 214 197 181 172 179
3 229 148 107 187 233 221 177 117 78 30 39 60 88 132 150 136 140 141 140 158 135 121 104 103 102 82 68 41 269 239 241 264 306 289 265 285 198 195 201 205 185 189 170
324 229 165 132 247 235 277 97 89 61 33 6 350 143 89 83 146 152 162 165 145 135 117 116 95 83 48 19 345 296 298 263 221 236 262 279 252 248 205 189 175 182 165 180
171 53 134 70 4 30 48 63 46 24 43 21 13 23 65 76 73 123 113 126 127 130 129 120 128 151 244 277 279 278 285 273 229 222 265 299 344 27 302 303 224 182 185 176
40 296 100 121 14 100 30 8 24 30 22 45 47 25 14 27 19 34 41 118 133 144 164 165 168 160 225 259 262 267 266 256 199 224 260 196 164 276 256 228 224 30 9 190